Location: Worth Mountain WMA
(34.9569°N, 81.4819°W)
Time: 22:57:59
(UTC-05:00)

GENESIS II - Pass Details

Date: 18 August 2017
Orbit: 508 x 526 km, 64.5° (Epoch: 22 November)

Event Time Altitude Azimuth Distance (km) Brightness Sun altitude
Rises 21:57:00 0° 332° (NNW) 2,656 8.9 -20.7°
Reaches altitude 10° 21:59:12 10° 334° (NNW) 1,761 7.7 -21.0°
Enters shadow 22:03:08 74° 59° (ENE) 545 4.1 -21.7°
